Regional Weather Roundup
Issued by NWS Portland, ME

Home | Current Version | Previous Version | Text Only | Print | Product List | Glossary On
Versions: 1 2 3 4 5 6 7 8 9 10 11 12 13 14 15 16 17 18 19 20 21 22 23 24 25 26 27 28 29 30 31 32 33 34 35 36 37 38 39 40 41 42 43 44 45 46 47 48 49 50
000
ASUS41 KGYX 301810
RWRGYX
WEATHER ROUNDUP FOR MAINE AND NEW HAMPSHIRE
NATIONAL WEATHER SERVICE GRAY ME
200 PM EDT THU MAR 30 2017

MEZ002-005-006-010-012-015-018-020-021-024-026-027-029-301900-
MAINE

CITY           SKY/WX    TMP DP  RH WIND       PRES   REMARKS
PORTLAND       MOSUNNY   46  20  35 NW12G25   30.15F
6HR MIN TEMP:  35; 6HR MAX TEMP:  46;

SANFORD        SUNNY     45  18  34 NW10      30.15F
BAR HARBOR     CLOUDY    41  18  39 N14G24    30.09F
WISCASSET      MOSUNNY   45  20  36 VRB7      30.14F
6HR MIN TEMP:  35; 6HR MAX TEMP:  45;

ROCKLAND       PTSUNNY   42  20  41 NW12G23   30.12F
FRYEBURG       SUNNY     44  15  31 VRB7G16   30.14F
6HR MIN TEMP:  33; 6HR MAX TEMP:  44;

LEWISTONAUBURN MOSUNNY   43  19  38 NW14      30.14
AUGUSTA        SUNNY     41  19  41 N15G24    30.14F
6HR MIN TEMP:  32; 6HR MAX TEMP:  41;

WATERVILLE     PTSUNNY   40  19  43 N16       30.11F
BANGOR         PTSUNNY   38  22  52 N23G29    30.13R
6HR MIN TEMP:  32; 6HR MAX TEMP:  39;

GREENVILLE       N/A     33  19  56 N21G26    30.07F
6HR MIN TEMP:  26; 6HR MAX TEMP:  34;

MILLINOCKET    CLOUDY    36  21  54 N14G22    30.13S
6HR MIN TEMP:  32; 6HR MAX TEMP:  37;

HOULTON        CLOUDY    35  20  54 NW16G29   30.09S
6HR MIN TEMP:  27; 6HR MAX TEMP:  36;

PRESQUE ISLE   CLOUDY    34  19  54 NW23      30.12F
6HR MIN TEMP:  28; 6HR MAX TEMP:  35; 6HR PCP: TRACE;

FRENCHVILLE    PTSUNNY   32  17  54 N20G29    30.11S
6HR MIN TEMP:  28; 6HR MAX TEMP:  33; 6HR PCP: TRACE;

CARIBOU        CLOUDY    34  21  59 NW21      30.10F
6HR MIN TEMP:  27; 6HR MAX TEMP:  36;

$$

NHZ002-005-008-009-011-012-014-301900-
NEW HAMPSHIRE

CITY           SKY/WX    TMP DP  RH WIND       PRES   REMARKS
PORTSMOUTH     MOSUNNY   47  17  29 N9        30.14F
ROCHESTER      SUNNY     45  15  30 VRB6      30.13F
6HR MIN TEMP:  33; 6HR MAX TEMP:  45;

NASHUA         SUNNY     46  18  32 N9G17     30.17F
MANCHESTER     MOSUNNY   45  15  30 W5        30.15F
6HR MIN TEMP:  36; 6HR MAX TEMP:  47;

CONCORD        SUNNY     46  19  34 NW13      30.17F
6HR MIN TEMP:  35; 6HR MAX TEMP:  46;

LACONIA        SUNNY     43  18  36 S6        30.15F
PLYMOUTH       FAIR      43  17  35 NW10G17   30.15F
BERLIN         SUNNY     41  14  33 NW8       30.13F
6HR MIN TEMP:  29; 6HR MAX TEMP:  41;

WHITEFIELD     SUNNY     41  15  35 N9        30.15F
6HR MIN TEMP:  29; 6HR MAX TEMP:  41;

JAFFREY        SUNNY     42  15  33 W3        30.14F
6HR MIN TEMP:  33; 6HR MAX TEMP:  44;

KEENE          SUNNY     44  17  33 N6        30.16F
LEBANON        SUNNY     45  19  35 N6        30.17F
6HR MIN TEMP:  34; 6HR MAX TEMP:  45;

MT WASHINGTON  FOG       14  14 100 W8          N/A  VSB 1/8
6HR MIN TEMP:   6; 6HR MAX TEMP:  15;

$$

VTZ005-007-008-301900-
VERMONT

CITY           SKY/WX    TMP DP  RH WIND       PRES   REMARKS
ST JOHNSBURY     N/A     41  17  38 MISG      30.16F
MONTPELIER     SUNNY     38  19  46 NW9       30.21F
BURLINGTON     MOSUNNY   40  19  43 NW12      30.23F
$$

MAZ007-012-024-CTZ003-RIZ002-NYZ038-NYZ072-301900-
SOUTHERN NEW ENGLAND AND NY

CITY           SKY/WX    TMP DP  RH WIND       PRES   REMARKS
BOSTON         MOSUNNY   47  20  34 NW8G17    30.17F
WORCESTER      SUNNY     44  17  33 N7        30.13F
NANTUCKET      SUNNY     44  25  47 N16       30.18F
PROVIDENCE     MOSUNNY   49  19  30 NW6       30.17F
HARTFORD       MOSUNNY   50  19  29 VRB7      30.17F
ALBANY         PTSUNNY   45  20  36 NE10      30.22F
NEW YORK CITY  PTSUNNY   51  23  33 VRB6      30.19F
$$

ANZ081-ANZ082-ANZ150-NHZ014-MEZ023>029-301900-
COASTAL MARINE OBSERVATIONS

STATION/POSITION TIME  TEMP    WIND        PRES    WAVE
                       AIR SEA DIR/SP/G            HT/PER
                 (UTC) (F)     (DEG/KT/KT) (MB)    (FT/S)
MOUNT DESERT ROC 1800   38                 1019.0F
MATINICUS ROCK   1700   38     330/ 19/ 21 1019.7F
ISLE OF SHOALS   1700   40      90/  6/  6 1021.6F
JEFFREYS LEDGE   1736      40                N/A     4/ 6
CASHES LEDGE BUO 1750   41 40              1020.3F   5/ 6
GEORGES BANK BUO 1750   38 41              1016.8R  10/ 8
$$

.............KEY..............
   WCI - WIND CHILL
   TC  - TEMPERATURE IN CELSIUS
   VSB - VISIBILITY IN MILES
   HX  - HEAT INDEX
   FAIR- INDICATES FEW OR NO CLOUDS BELOW 12,000 FT, WITH NO
         SIGNIFICANT WEATHER AND/OR OBSTRUCTIONS TO VISIBILITY.





USA.gov is the U.S. government's official web portal to all federal, state and local government web resources and services.